AirNav   Textron
 
 1038 users online  

2MO7 Fawn Lake Airport
Warrenton, Missouri, USA

GOING TO WARRENTON?


FAA INFORMATION EFFECTIVE 14 SEPTEMBER 2017

Location

FAA Identifier: 2MO7
Lat/Long: 38-52-00.0000N / 091-05-10.0000W
38-52.000000N / 091-05.166667W
38.8666667 / -91.0861111
(estimated)
Elevation: 750 ft. / 229 m (estimated)
Variation: 02E (1995)
From city: 5 miles NE of WARRENTON, MO
Time zone: UTC -5 (UTC -6 during Standard Time)
Zip code: 63390

Airport Operations

Airport use: Private use. Permission required prior to landing
Activation date: 07/1997
Control tower: no
ARTCC: KANSAS CITY CENTER
FSS: SAINT LOUIS FLIGHT SERVICE STATION
Attendance: UNATNDD
Segmented circle: no

Airport Communications

WX AWOS-3 at FYG (17 nm S): 121.325 (636-433-5914)

Nearby radio navigation aids

VOR radial/distance  VOR name  Freq  Var
FTZr328/11.7FORISTELL VORTAC110.8005E
STLr270/28.2ST LOUIS VORTAC117.4001E
CSXr281/34.6CARDINAL VOR/DME116.4500E

 
NDB name  Hdg/Dist  Freq  Var  ID
SULLIVAN004/38.035602EUUV ..- ..- ...-

Airport Services

Runway Information

Runway 17/35

Dimensions: 3400 x 50 ft. / 1036 x 15 m
Surface: turf
RUNWAY 17  RUNWAY 35
Traffic pattern: leftleft

Airport Ownership and Management from official FAA records

Ownership: Privately-owned
Owner: C. KOVIAK, INC.
P.O. BOX 1177
LAKE SHERWOOD, MO 63357
Phone 314-398-6399
Manager: CHARLES KOVIAK
P.O. BOX 1177
LAKE SHERWOOD, MO 63357
Phone 314-398-6399

Instrument Procedures

There are no published instrument procedures at 2MO7.

Some nearby airports with instrument procedures:

KFYG - Washington Regional Airport (17 nm S)
KSUS - Spirit of St Louis Airport (24 nm SE)
1H0 - Creve Coeur Airport (28 nm E)
H19 - Bowling Green Municipal Airport (31 nm N)
KSET - St Charles County Smartt Airport (31 nm E)
 
Loc | Ops | Rwys | IFR | FBO | Links
Com | Nav | Svcs | Stats | Notes

Kansas City Aviation Department
 
Area around 2MO7 (Fawn Lake Airport)
 
Road maps at: MapQuest Bing Google
 
Aerial photo
No photo
 
Sectional chart

 
Airport distance calculator
Flying to Fawn Lake Airport? Find the distance to fly.

From to 2MO7

Sunrise and sunset
Times for 23-Sep-2017
 Local
(UTC-5)
 Zulu
(UTC)
Morning civil twilight06:2711:27
Sunrise06:5411:54
Sunset19:0024:00
Evening civil twilight19:2600:26

Current date and time
Zulu (UTC)  23-Sep-2017 18:21:15
Local (UTC-5)  23-Sep-2017 13:21:15
 
METAR
KFYG 
17nm S 
231755Z AUTO 00000KT 10SM CLR 31/19 A3004 RMK AO2
KSUS 
24nm SE 
231754Z 00000KT 10SM SCT050 32/20 A3005 RMK AO2 SLP165 T03170200 10322 20183 58009
KSET 
31nm E 
231754Z AUTO 13006KT 10SM FEW050 33/18 A3005 RMK AO2 SLP169 T03280178 10328 20194 58009
KSTL 
34nm E 
231751Z 11008KT 10SM BKN060 32/18 A3007 RMK AO2 SLP168 T03170178 10322 20211 58007
TAF
KSUS 
24nm SE 
231725Z 2318/2418 VRB04KT P6SM SCT060
NOTAMs
Click for the latest NOTAMs
NOTAMs are issued by the DoD/FAA and will open in a separate window not controlled by AirNav.

 

 
 

Would you like to see your business listed on this page?

 If your business provides an interesting product or service to pilots, flight crews, aircraft, or users of the Fawn Lake Airport, you should consider listing it here.  To start the listing process, click on the button below
 
Add a business
 

Other Pages about Fawn Lake Airport

Update a link
 
Copyright © AirNav, LLC. All rights reserved. Privacy Policy  Contact